Location: Harbor View
(36.2448°N, 86.5797°W)
Time: 08:45:45
(UTC+00:00)

Cosmos 1400 Rocket - Pass Details

Date: 29 October 2020
Orbit: 521 x 568 km, 81.2° (Epoch: 04 December)

Event Time Altitude Azimuth Distance (km) Brightness Sun altitude
Rises 23:26:06 0° 187° (S) 2,751 6.6 -7.4°
Reaches altitude 10° 23:28:16 10° 187° (S) 1,856 5.8 -7.8°
Maximum altitude 23:32:23 90° 88° (E) 569 2.9 -8.6°
Drops below altitude 10° 23:36:29 10° 9° (N) 1,853 5.3 -9.4°
Sets 23:38:39 0° 9° (N) 2,745 6.2 -9.9°
